Home > Weather > Amiens > Past weeks

Flag for France Past Weather in Amiens, Picardy, France — Yesterday and Last 2 Weeks

Now
64 °F

Overcast.


Feels Like: 64 °F
Forecast: 56 / 71 °F
Wind: 3 mph from Southeast

Location: Beauvais Airport

Current Time: Jul 29, 2016 at 2:13:05 AM

Latest Report: Jul 29, 2016 at 1:30 AM


Visibility: N/A

Pressure: 29.98 "Hg

Humidity: 83%

Dew Point: 59 °F

Location of AmiensLocation

Past Weather in Amiens — Graph

°F

Amiens Temperature Yesterday

Maximum temperature yesterday: 75 °F (at 5:30 PM)
Minimum temperature yesterday: 63 °F (at 5:30 AM)
Average temperature yesterday: 69 °F

High & Low Weather Summary for the Past Weeks

 TemperatureHumidityPressure
High93 °F (Jul 19, 4:00 PM)100% (Jul 14, 3:30 AM)30.36 "Hg (Jul 14, 3:30 AM)
Low45 °F (Jul 15, 5:30 AM)32% (Jul 19, 4:00 PM)29.86 "Hg (Jul 20, 6:30 AM)
Average67 °F72%30.13 "Hg
* Reported Jul 14 1:00 AM — Jul 29 1:00 AM, Amiens, Weather by CustomWeather, © 2016

Note: Actual official high and low records may vary slightly from our data, if they occured in-between our weather recording intervals... More about our weather records

Advertising

Amiens Weather History for the Previous 24 Hours

Scroll right to see more
 ConditionsComfort  
Time TempWeatherWind HumidityBarometerVisibility
1:00 AM
Fri, Jul 29
66 °FMostly cloudy.3 mph78%29.98 "HgN/A
12:30 AM66 °FMostly cloudy.3 mph78%29.98 "HgN/A
12:00 AM66 °FPassing clouds.3 mph78%29.98 "HgN/A
11:30 PM
Thu, Jul 28
68 °FMostly cloudy.5 mph73%29.98 "HgN/A
11:00 PM68 °FMostly cloudy.5 mph69%29.98 "HgN/A
10:30 PM70 °FOvercast.6 mph64%29.98 "HgN/A
10:00 PM70 °FCloudy.5 mph64%29.98 "HgN/A
9:30 PM70 °FMostly cloudy.8 mph64%30.01 "HgN/A
9:00 PM70 °FMostly cloudy.9 mph64%29.98 "HgN/A
8:30 PM72 °FOvercast.8 mph61%29.98 "HgN/A
8:00 PM72 °FOvercast.12 mph61%29.98 "HgN/A
7:30 PM73 °FMostly cloudy.13 mph53%29.98 "HgN/A
7:00 PM73 °FBroken clouds.13 mph50%29.98 "HgN/A
6:30 PM75 °FPassing clouds.12 mph44%29.98 "HgN/A
6:00 PM75 °FPassing clouds.12 mph44%30.01 "HgN/A
5:30 PM75 °FPassing clouds.14 mph47%30.01 "HgN/A
5:00 PM73 °FSunny.13 mph47%30.01 "Hg10 mi
4:30 PM73 °FPassing clouds.14 mph47%30.01 "HgN/A
4:00 PM73 °FPassing clouds.13 mph47%30.01 "HgN/A
3:30 PM73 °FPassing clouds.12 mph50%30.01 "HgN/A
3:00 PM73 °FScattered clouds.12 mph50%30.04 "HgN/A
2:30 PM72 °FScattered clouds.13 mph53%30.04 "HgN/A
2:00 PM72 °FPartly sunny.15 mph53%30.04 "HgN/A
1:30 PM73 °FPartly sunny.14 mph53%30.04 "HgN/A
1:00 PM73 °FBroken clouds.16 mph53%30.04 "HgN/A
12:30 PM72 °FBroken clouds.14 mph53%30.04 "HgN/A
12:00 PM70 °FScattered clouds.13 mph60%30.04 "HgN/A
11:30 AM70 °FPartly sunny.9 mph64%30.04 "HgN/A
11:00 AM70 °FBroken clouds.9 mph69%30.04 "HgN/A
10:30 AM68 °FPartly sunny.8 mph73%30.04 "HgN/A
10:00 AM66 °FMore clouds than sun.9 mph78%30.04 "HgN/A
9:30 AM64 °FPartly sunny.9 mph83%30.04 "HgN/A
9:00 AM64 °FPartly sunny.6 mph83%30.04 "HgN/A
8:30 AM64 °FBroken clouds.5 mph88%30.04 "HgN/A
8:00 AM64 °FBroken clouds.6 mph88%30.04 "HgN/A
7:30 AM63 °FBroken clouds.6 mph94%30.04 "HgN/A
7:00 AM63 °FMostly cloudy.5 mph94%30.04 "HgN/A
6:30 AM63 °FOvercast.6 mph94%30.01 "HgN/A
6:00 AM63 °FPassing clouds.7 mph94%30.01 "HgN/A
5:30 AM63 °FPassing clouds.7 mph94%30.01 "HgN/A
5:00 AM64 °FMostly cloudy.6 mph94%30.01 "HgN/A
4:30 AM64 °FPartly cloudy.5 mph94%30.04 "HgN/A
4:00 AM64 °FMostly cloudy.5 mph94%30.04 "HgN/A
3:30 AM64 °FLight rain. Mostly cloudy.6 mph88%30.04 "Hg6 mi
3:00 AM64 °FMostly cloudy.7 mph88%30.04 "HgN/A
2:30 AM64 °FPartly cloudy.5 mph88%30.04 "HgN/A
2:00 AM66 °FOvercast.6 mph83%30.04 "HgN/A
Weather by CustomWeather, © 2016

See weather overviewHow to use our weather pages